Location: Bun Machan
(52.1403°N, 7.3744°W)
Time: 02:47:48
(UTC+00:00)

Cosmos 1805 Rocket - Pass Details

Date: 14 July 2020
Orbit: 607 x 629 km, 82.5° (Epoch: 04 August)

Event Time Altitude Azimuth Distance (km) Brightness Sun altitude
Exits shadow 00:39:36 28° 205° (SSW) 1,157 4.4 -16.2°
Maximum altitude 00:41:49 69° 282° (WNW) 658 3.7 -16.2°
Drops below altitude 10° 00:46:13 10° 7° (N) 1,987 7.5 -16.2°
Sets 00:48:28 0° 10° (N) 2,901 8.8 -16.2°
